Hazlehurst, GA

7:21 AM EST on December 07, 2019 (GMT -0500)
Hazlehurst

Weather History for KAZE - August, 2019

Change the Weather History Date:

Tuesday, August 27, 2019

  Actual Average Record
Temperature  
Mean Temperature 82 °F -  
Max Temperature 92 °F 94 °F 95 °F (2016)
Min Temperature 74 °F 71 °F 66 °F (2014)
Cooling Degree Days 18    
Growing Degree Days 32 (Base 50)    
Moisture  
Dew Point 72 °F    
Average Humidity 73    
Maximum Humidity 90    
Minimum Humidity 46    
Precipitation  
Precipitation 0.00 in - - ()
Sea Level Pressure  
Sea Level Pressure 29.96 in    
Wind  
Wind Speed 1 mph (SW)    
Max Wind Speed 7 mph    
Max Gust Speed -    
Visibility 10 miles    
Events Rain    
Averages and records for this station are not official NWS values.
T = Trace of Precipitation, MM = Missing Value Source: NWS Daily Summary

Daily Weather History Graph

Daily Weather History Graph

Search for Another Location

Airport or City:

Astronomy

Aug. 27, 2019 Rise Set
Actual Time 7:02 AM EDT 8:00 PM EDT
Civil Twilight 6:37 AM EDT 8:26 PM EDT
Nautical Twilight 6:07 AM EDT 8:55 PM EDT
Astronomical Twilight 5:37 AM EDT 9:26 PM EDT
Moon 3:39 AM EDT (8/27) 6:08 PM EDT (8/27)
Length of Visible Light 13h 48m
Length of Day
12h 58m
Waning Crescent, 11% of the Moon is Illuminated
Aug 27
Waning Crescent
Aug 30
New
Sep 5
First Quarter
Sep 14
Full
Sep 21
Last Quarter

Hourly Weather History & Observations

Time (EDT) Temp. Heat Index Dew Point Humidity Pressure Visibility Wind Dir Wind Speed Gust Speed Precip Events Conditions
12:10 AM 75.0 °F - 70.0 °F 84% 30.01 in 10.0 mi Calm Calm - N/A   Scattered Clouds
12:50 AM 74.8 °F - 70.5 °F 86% 30.01 in 10.0 mi Calm Calm - N/A   Mostly Cloudy
1:10 AM 74.7 °F - 70.2 °F 86% 30.00 in 10.0 mi Calm Calm - N/A   Overcast
1:30 AM 75.0 °F - 70.5 °F 86% 30.00 in 10.0 mi Calm Calm - N/A   Overcast
1:50 AM 75.2 °F - 70.7 °F 86% 29.99 in 10.0 mi Calm Calm - N/A   Mostly Cloudy
2:10 AM 75.4 °F - 71.2 °F 87% 29.99 in 10.0 mi Calm Calm - N/A   Mostly Cloudy
2:30 AM 75.7 °F - 71.6 °F 87% 29.98 in 10.0 mi Calm Calm - N/A   Mostly Cloudy
2:50 AM 76.3 °F - 71.6 °F 85% 29.97 in 10.0 mi Calm Calm - N/A   Mostly Cloudy
3:10 AM 76.1 °F - 71.6 °F 86% 29.96 in 10.0 mi Calm Calm - N/A   Mostly Cloudy
3:30 AM 76.1 °F - 71.6 °F 86% 29.96 in 10.0 mi Calm Calm - N/A   Scattered Clouds
3:50 AM 76.1 °F - 71.6 °F 86% 29.96 in 10.0 mi Calm Calm - N/A   Scattered Clouds
4:10 AM 76.1 °F - 71.6 °F 86% 29.94 in 10.0 mi SSE 4.6 mph - N/A   Scattered Clouds
4:30 AM 76.1 °F - 71.6 °F 86% 29.94 in 10.0 mi SSE 3.5 mph - N/A   Scattered Clouds
4:50 AM 76.1 °F - 71.8 °F 86% 29.94 in 10.0 mi Calm Calm - N/A   Overcast
5:10 AM 76.1 °F - 71.8 °F 86% 29.94 in 10.0 mi Calm Calm - N/A   Overcast
5:30 AM 76.1 °F - 71.8 °F 86% 29.94 in 10.0 mi Calm Calm - N/A   Mostly Cloudy
5:50 AM 76.1 °F - 72.0 °F 87% 29.95 in 10.0 mi Calm Calm - N/A   Mostly Cloudy
6:10 AM 75.7 °F - 72.0 °F 88% 29.96 in 10.0 mi Calm Calm - N/A   Clear
6:30 AM 75.7 °F - 72.1 °F 89% 29.97 in 10.0 mi Calm Calm - N/A   Clear
6:50 AM 75.7 °F - 72.3 °F 89% 29.98 in 10.0 mi Calm Calm - N/A   Mostly Cloudy
7:10 AM 75.7 °F - 72.5 °F 90% 29.99 in 7.0 mi Calm Calm - N/A   Overcast
7:30 AM 75.7 °F - 72.5 °F 90% 29.99 in 7.0 mi Calm Calm - N/A   Scattered Clouds
7:50 AM 75.9 °F - 72.5 °F 89% 29.99 in 7.0 mi Calm Calm - N/A   Scattered Clouds
8:10 AM 77.4 °F - 73.2 °F 87% 30.00 in 7.0 mi SSW 3.5 mph - N/A   Mostly Cloudy
8:30 AM 77.5 °F - 73.4 °F 87% 30.01 in 7.0 mi SSW 3.5 mph - N/A   Overcast
8:50 AM 77.9 °F - 72.9 °F 84% 30.00 in 7.0 mi Calm Calm - N/A   Overcast
9:10 AM 79.3 °F - 72.9 °F 80% 30.00 in 10.0 mi SSW 5.8 mph - N/A   Mostly Cloudy
9:30 AM 79.7 °F - 72.9 °F 80% 30.00 in 10.0 mi South 5.8 mph - N/A   Overcast
9:50 AM 80.4 °F 84.8 °F 73.0 °F 78% 30.01 in 10.0 mi SSW 6.9 mph - N/A   Scattered Clouds
10:10 AM 82.2 °F 88.0 °F 73.4 °F 75% 30.02 in 10.0 mi SW 5.8 mph - N/A   Scattered Clouds
10:30 AM 83.3 °F 89.3 °F 72.9 °F 71% 30.01 in 10.0 mi SW 4.6 mph - N/A   Mostly Cloudy
10:50 AM 84.2 °F 90.3 °F 72.7 °F 68% 30.00 in 10.0 mi SSW 3.5 mph - N/A   Scattered Clouds
11:10 AM 83.8 °F 89.8 °F 72.7 °F 69% 30.00 in 10.0 mi SW 3.5 mph - N/A   Scattered Clouds
11:30 AM 85.1 °F 91.8 °F 72.9 °F 67% 30.00 in 10.0 mi Calm Calm - N/A   Mostly Cloudy
11:50 AM 85.3 °F 91.5 °F 72.5 °F 65% 30.00 in 10.0 mi South 4.6 mph - N/A   Overcast
12:10 PM 86.7 °F 93.3 °F 72.1 °F 62% 29.99 in 10.0 mi South 4.6 mph - N/A   Scattered Clouds
12:30 PM 85.8 °F 91.5 °F 71.4 °F 62% 29.99 in 10.0 mi SW 3.5 mph - N/A   Mostly Cloudy
12:50 PM 88.5 °F 94.4 °F 71.2 °F 56% 29.97 in 7.0 mi SSW 4.6 mph - N/A   Mostly Cloudy
1:10 PM 88.2 °F 93.3 °F 70.3 °F 55% 29.96 in 10.0 mi SW 4.6 mph - N/A   Mostly Cloudy
1:30 PM 89.6 °F 94.7 °F 70.0 °F 52% 29.95 in 10.0 mi Calm Calm - N/A   Scattered Clouds
1:50 PM 89.4 °F 94.0 °F 69.3 °F 51% 29.95 in 10.0 mi SW 5.8 mph - N/A   Scattered Clouds
2:10 PM 89.2 °F 94.9 °F 70.5 °F 54% 29.94 in 10.0 mi WSW 4.6 mph - N/A   Mostly Cloudy
2:30 PM 89.6 °F 93.9 °F 68.7 °F 50% 29.93 in 10.0 mi SW 3.5 mph - N/A   Mostly Cloudy
2:50 PM 90.1 °F 94.4 °F 68.9 °F 49% 29.92 in 10.0 mi SW 5.8 mph - N/A   Mostly Cloudy
3:10 PM 89.8 °F 93.8 °F 68.4 °F 49% 29.92 in 10.0 mi Calm Calm - N/A   Mostly Cloudy
3:50 PM 90.0 °F 94.1 °F 68.4 °F 49% 29.91 in 10.0 mi WSW 5.8 mph - N/A   Clear
4:10 PM 91.4 °F 95.4 °F 68.0 °F 46% 29.90 in 10.0 mi WNW 4.6 mph - N/A   Clear
4:30 PM 91.9 °F 96.4 °F 68.4 °F 46% 29.90 in 10.0 mi West 3.5 mph - N/A   Clear
4:50 PM 90.9 °F 94.4 °F 67.6 °F 46% 29.90 in 10.0 mi Calm Calm - N/A   Scattered Clouds
5:10 PM 90.0 °F 94.5 °F 68.9 °F 50% 29.90 in 10.0 mi West 4.6 mph - N/A   Scattered Clouds
5:30 PM 88.0 °F 93.8 °F 70.9 °F 57% 29.91 in 10.0 mi Calm Calm - N/A   Mostly Cloudy
5:50 PM 86.9 °F 93.3 °F 72.1 °F 61% 29.91 in 10.0 mi Calm Calm - N/A   Mostly Cloudy
6:10 PM 87.1 °F 94.1 °F 72.5 °F 62% 29.90 in 10.0 mi Calm Calm - N/A   Scattered Clouds
6:30 PM 86.9 °F 92.1 °F 70.3 °F 58% 29.90 in 10.0 mi WSW 3.5 mph - N/A   Clear
6:50 PM 86.0 °F 90.7 °F 70.3 °F 59% 29.90 in 10.0 mi Calm Calm - N/A   Clear
7:10 PM 85.1 °F 90.8 °F 71.6 °F 64% 29.89 in 10.0 mi Calm Calm - N/A   Clear
7:30 PM 84.0 °F 89.9 °F 72.5 °F 68% 29.90 in 10.0 mi Calm Calm - N/A   Clear
7:50 PM 84.2 °F 90.6 °F 72.9 °F 69% 29.90 in 10.0 mi Calm Calm - N/A   Clear
8:10 PM 83.3 °F 89.6 °F 73.6 °F 72% 29.91 in 10.0 mi Calm Calm - N/A   Clear
8:30 PM 82.4 °F 89.0 °F 74.7 °F 77% 29.92 in 10.0 mi Calm Calm - N/A   Mostly Cloudy
8:50 PM 82.6 °F 88.3 °F 73.2 °F 73% 29.93 in 10.0 mi SW 4.6 mph - N/A   Mostly Cloudy
9:10 PM 82.6 °F 88.1 °F 72.7 °F 72% 29.93 in 10.0 mi Calm Calm - N/A Rain Light Rain
9:30 PM 81.7 °F 86.3 °F 72.0 °F 72% 29.93 in 10.0 mi Calm Calm - N/A   Mostly Cloudy
9:50 PM 81.5 °F 85.9 °F 71.8 °F 72% 29.94 in 10.0 mi Calm Calm - N/A   Scattered Clouds
10:10 PM 81.1 °F 85.8 °F 72.5 °F 75% 29.95 in 10.0 mi Calm Calm - N/A   Scattered Clouds
10:30 PM 79.7 °F - 73.6 °F 81% 29.95 in 10.0 mi Calm Calm - N/A   Light Drizzle
10:50 PM 78.8 °F - 72.7 °F 81% 29.96 in 10.0 mi Calm Calm - N/A   Scattered Clouds
11:10 PM 78.4 °F - 72.9 °F 83% 29.96 in 10.0 mi Calm Calm - N/A Rain Light Rain
11:30 PM 78.8 °F - 73.0 °F 82% 29.96 in 10.0 mi Calm Calm - N/A   Scattered Clouds
11:50 PM 78.4 °F - 72.9 °F 83% 29.95 in 10.0 mi Calm Calm - N/A   Scattered Clouds